Year,Month,Day,Hour,Minute,Value (Times are PST for temperature in C)
2018,04,25,00,00,7.10
2018,04,25,00,01,7.10
2018,04,25,00,02,7.10
2018,04,25,00,03,7.10
2018,04,25,00,04,7.00
2018,04,25,00,05,7.00
2018,04,25,00,06,7.00
2018,04,25,00,07,7.00
2018,04,25,00,08,6.90
2018,04,25,00,09,6.90
2018,04,25,00,10,6.90
2018,04,25,00,11,6.90
2018,04,25,00,12,6.90
2018,04,25,00,13,6.90
2018,04,25,00,14,6.90
2018,04,25,00,15,6.80
2018,04,25,00,16,6.80
2018,04,25,00,17,6.80
2018,04,25,00,18,6.80
2018,04,25,00,19,6.80
2018,04,25,00,20,6.80
2018,04,25,00,21,6.80
2018,04,25,00,22,6.80
2018,04,25,00,23,6.80
2018,04,25,00,24,6.80
2018,04,25,00,25,6.80
2018,04,25,00,26,6.70
2018,04,25,00,27,6.70
2018,04,25,00,28,6.70
2018,04,25,00,29,6.70
2018,04,25,00,30,6.70
2018,04,25,00,31,6.70
2018,04,25,00,32,6.70
2018,04,25,00,33,6.60
2018,04,25,00,34,6.60
2018,04,25,00,35,6.60
2018,04,25,00,36,6.60
2018,04,25,00,37,6.60
2018,04,25,00,38,6.60
2018,04,25,00,39,6.60
2018,04,25,00,40,6.60
2018,04,25,00,41,6.60
2018,04,25,00,42,6.60
2018,04,25,00,43,6.60
2018,04,25,00,44,6.60
2018,04,25,00,45,6.50
2018,04,25,00,46,6.50
2018,04,25,00,47,6.50
2018,04,25,00,48,6.50
2018,04,25,00,49,6.50
2018,04,25,00,50,6.50
2018,04,25,00,51,6.40
2018,04,25,00,52,6.40
2018,04,25,00,53,6.40
2018,04,25,00,54,6.40
2018,04,25,00,55,6.40
2018,04,25,00,56,6.40
2018,04,25,00,57,6.40
2018,04,25,00,58,6.40
2018,04,25,00,59,6.40
2018,04,25,01,00,6.30
2018,04,25,01,01,6.30
2018,04,25,01,02,6.30
2018,04,25,01,03,6.30
2018,04,25,01,04,6.30
2018,04,25,01,05,6.30
2018,04,25,01,06,6.30
2018,04,25,01,07,6.30
2018,04,25,01,08,6.30
2018,04,25,01,09,6.30
2018,04,25,01,10,6.20
2018,04,25,01,11,6.20
2018,04,25,01,12,6.20
2018,04,25,01,13,6.20
2018,04,25,01,14,6.20
2018,04,25,01,15,6.20
2018,04,25,01,16,6.20
2018,04,25,01,17,6.20
2018,04,25,01,18,6.20
2018,04,25,01,19,6.20
2018,04,25,01,20,6.10
2018,04,25,01,21,6.10
2018,04,25,01,22,6.20
2018,04,25,01,23,6.20
2018,04,25,01,24,6.20
2018,04,25,01,25,6.20
2018,04,25,01,26,6.20
2018,04,25,01,27,6.20
2018,04,25,01,28,6.10
2018,04,25,01,29,6.10
2018,04,25,01,30,6.10
2018,04,25,01,31,6.10
2018,04,25,01,32,6.10
2018,04,25,01,33,6.10
2018,04,25,01,34,6.00
2018,04,25,01,35,6.00
2018,04,25,01,36,6.00
2018,04,25,01,37,5.90
2018,04,25,01,38,5.90
2018,04,25,01,39,5.90
2018,04,25,01,40,5.90
2018,04,25,01,41,5.90
2018,04,25,01,42,5.80
2018,04,25,01,43,5.80
2018,04,25,01,44,5.80
2018,04,25,01,45,5.80
2018,04,25,01,46,5.80
2018,04,25,01,47,5.70
2018,04,25,01,48,5.70
2018,04,25,01,49,5.70
2018,04,25,01,50,5.70
2018,04,25,01,51,5.70
2018,04,25,01,52,5.70
2018,04,25,01,53,5.70
2018,04,25,01,54,5.70
2018,04,25,01,55,5.70
2018,04,25,01,56,5.60
2018,04,25,01,57,5.60
2018,04,25,01,58,5.60
2018,04,25,01,59,5.60
2018,04,25,02,00,5.60
2018,04,25,02,01,5.60
2018,04,25,02,02,5.60
2018,04,25,02,03,5.60
2018,04,25,02,04,5.60
2018,04,25,02,05,5.60
2018,04,25,02,06,5.60
2018,04,25,02,07,5.60
2018,04,25,02,08,5.60
2018,04,25,02,09,5.50
2018,04,25,02,10,5.50
2018,04,25,02,11,5.50
2018,04,25,02,12,5.50
2018,04,25,02,13,5.50
2018,04,25,02,14,5.40
2018,04,25,02,15,5.40
2018,04,25,02,16,5.40
2018,04,25,02,17,5.40
2018,04,25,02,18,5.40
2018,04,25,02,19,5.40
2018,04,25,02,20,5.40
2018,04,25,02,21,5.40
2018,04,25,02,22,5.30
2018,04,25,02,23,5.30
2018,04,25,02,24,5.30
2018,04,25,02,25,5.30
2018,04,25,02,26,5.30
2018,04,25,02,27,5.30
2018,04,25,02,28,5.30
2018,04,25,02,29,5.30
2018,04,25,02,30,5.30
2018,04,25,02,31,5.20
2018,04,25,02,32,5.20
2018,04,25,02,33,5.20
2018,04,25,02,34,5.20
2018,04,25,02,35,5.20
2018,04,25,02,36,5.20
2018,04,25,02,37,5.20
2018,04,25,02,38,5.20
2018,04,25,02,39,5.20
2018,04,25,02,40,5.10
2018,04,25,02,41,5.10
2018,04,25,02,42,5.10
2018,04,25,02,43,5.10
2018,04,25,02,44,5.10
2018,04,25,02,45,5.10
2018,04,25,02,46,5.10
2018,04,25,02,47,5.10
2018,04,25,02,48,5.10
2018,04,25,02,49,5.10
2018,04,25,02,50,5.10
2018,04,25,02,51,5.10
2018,04,25,02,52,5.10
2018,04,25,02,53,5.00
2018,04,25,02,54,5.00
2018,04,25,02,55,5.00
2018,04,25,02,56,5.00
2018,04,25,02,57,5.00
2018,04,25,02,58,4.90
2018,04,25,02,59,4.90
2018,04,25,03,00,4.90
2018,04,25,03,01,4.90
2018,04,25,03,02,4.90
2018,04,25,03,03,4.90
2018,04,25,03,04,4.90
2018,04,25,03,05,4.90
2018,04,25,03,06,4.90
2018,04,25,03,07,4.90
2018,04,25,03,08,4.90
2018,04,25,03,09,4.80
2018,04,25,03,10,4.80
2018,04,25,03,11,4.80
2018,04,25,03,12,4.80
2018,04,25,03,13,4.80
2018,04,25,03,14,4.80
2018,04,25,03,15,4.80
2018,04,25,03,16,4.80
2018,04,25,03,17,4.80
2018,04,25,03,18,4.80
2018,04,25,03,19,4.80
2018,04,25,03,20,4.80
2018,04,25,03,21,4.80
2018,04,25,03,22,4.80
2018,04,25,03,23,4.80
2018,04,25,03,24,4.80
2018,04,25,03,25,4.80
2018,04,25,03,26,4.70
2018,04,25,03,27,4.70
2018,04,25,03,28,4.70
2018,04,25,03,29,4.70
2018,04,25,03,30,4.70
2018,04,25,03,31,4.70
2018,04,25,03,32,4.70
2018,04,25,03,33,4.70
2018,04,25,03,34,4.70
2018,04,25,03,35,4.60
2018,04,25,03,36,4.60
2018,04,25,03,37,4.60
2018,04,25,03,38,4.60
2018,04,25,03,39,4.60
2018,04,25,03,40,4.60
2018,04,25,03,41,4.60
2018,04,25,03,42,4.60
2018,04,25,03,43,4.50
2018,04,25,03,44,4.50
2018,04,25,03,45,4.50
2018,04,25,03,46,4.50
2018,04,25,03,47,4.50
2018,04,25,03,48,4.50
2018,04,25,03,49,4.50
2018,04,25,03,50,4.50
2018,04,25,03,51,4.50
2018,04,25,03,52,4.50
2018,04,25,03,53,4.40
2018,04,25,03,54,4.40
2018,04,25,03,55,4.40
2018,04,25,03,56,4.40
2018,04,25,03,57,4.40
2018,04,25,03,58,4.40
2018,04,25,03,59,4.40
2018,04,25,04,00,4.40
2018,04,25,04,01,4.40
2018,04,25,04,02,4.40
2018,04,25,04,03,4.40
2018,04,25,04,04,4.40
2018,04,25,04,05,4.40
2018,04,25,04,06,4.30
2018,04,25,04,07,4.30
2018,04,25,04,08,4.30
2018,04,25,04,09,4.30
2018,04,25,04,10,4.30
2018,04,25,04,11,4.30
2018,04,25,04,12,4.30
2018,04,25,04,13,4.30
2018,04,25,04,14,4.30
2018,04,25,04,15,4.30
2018,04,25,04,16,4.30
2018,04,25,04,17,4.30
2018,04,25,04,18,4.30
2018,04,25,04,19,4.30
2018,04,25,04,20,4.30
2018,04,25,04,21,4.30
2018,04,25,04,22,4.30
2018,04,25,04,23,4.30
2018,04,25,04,24,4.30
2018,04,25,04,25,4.30
2018,04,25,04,26,4.30
2018,04,25,04,27,4.30
2018,04,25,04,28,4.30
2018,04,25,04,29,4.30
2018,04,25,04,30,4.30
2018,04,25,04,31,4.30
2018,04,25,04,32,4.30
2018,04,25,04,33,4.30
2018,04,25,04,34,4.30
2018,04,25,04,35,4.20
2018,04,25,04,36,4.20
2018,04,25,04,37,4.20
2018,04,25,04,38,4.20
2018,04,25,04,39,4.20
2018,04,25,04,40,4.20
2018,04,25,04,41,4.20
2018,04,25,04,42,4.20
2018,04,25,04,43,4.20
2018,04,25,04,44,4.20
2018,04,25,04,45,4.20
2018,04,25,04,46,4.20
2018,04,25,04,47,4.20
2018,04,25,04,48,4.20
2018,04,25,04,49,4.20
2018,04,25,04,50,4.20
2018,04,25,04,51,4.10
2018,04,25,04,52,4.10
2018,04,25,04,53,4.10
2018,04,25,04,54,4.10
2018,04,25,04,55,4.10
2018,04,25,04,56,4.10
2018,04,25,04,57,4.10
2018,04,25,04,58,4.10
2018,04,25,04,59,4.10
2018,04,25,05,00,4.10
2018,04,25,05,01,4.00
2018,04,25,05,02,4.00
2018,04,25,05,03,4.00
2018,04,25,05,04,4.00
2018,04,25,05,05,3.90
2018,04,25,05,06,3.90
2018,04,25,05,07,3.90
2018,04,25,05,08,3.90
2018,04,25,05,09,3.90
2018,04,25,05,10,3.90
2018,04,25,05,11,3.90
2018,04,25,05,12,3.90
2018,04,25,05,13,3.90
2018,04,25,05,14,3.90
2018,04,25,05,15,3.80
2018,04,25,05,16,3.80
2018,04,25,05,17,3.80
2018,04,25,05,18,3.80
2018,04,25,05,19,3.80
2018,04,25,05,20,3.80
2018,04,25,05,21,3.80
2018,04,25,05,22,3.80
2018,04,25,05,23,3.70
2018,04,25,05,24,3.70
2018,04,25,05,25,3.70
2018,04,25,05,26,3.70
2018,04,25,05,27,3.70
2018,04,25,05,28,3.70
2018,04,25,05,29,3.70
2018,04,25,05,30,3.70
2018,04,25,05,31,3.60
2018,04,25,05,32,3.60
2018,04,25,05,33,3.60
2018,04,25,05,34,3.60
2018,04,25,05,35,3.60
2018,04,25,05,36,3.60
2018,04,25,05,37,3.60
2018,04,25,05,38,3.60
2018,04,25,05,39,3.60
2018,04,25,05,40,3.60
2018,04,25,05,41,3.60
2018,04,25,05,42,3.60
2018,04,25,05,43,3.60
2018,04,25,05,44,3.60
2018,04,25,05,45,3.60
2018,04,25,05,46,3.60
2018,04,25,05,47,3.50
2018,04,25,05,48,3.50
2018,04,25,05,49,3.50
2018,04,25,05,50,3.50
2018,04,25,05,51,3.50
2018,04,25,05,52,3.50
2018,04,25,05,53,3.50
2018,04,25,05,54,3.50
2018,04,25,05,55,3.50
2018,04,25,05,56,3.50
2018,04,25,05,57,3.50
2018,04,25,05,58,3.50
2018,04,25,05,59,3.50
2018,04,25,06,00,3.40
2018,04,25,06,01,3.40
2018,04,25,06,02,3.40
2018,04,25,06,03,3.40
2018,04,25,06,04,3.40
2018,04,25,06,05,3.40
2018,04,25,06,06,3.40
2018,04,25,06,07,3.40
2018,04,25,06,08,3.50
2018,04,25,06,09,3.50
2018,04,25,06,10,3.50
2018,04,25,06,11,3.50
2018,04,25,06,12,3.50
2018,04,25,06,13,3.50
2018,04,25,06,14,3.60
2018,04,25,06,15,3.60
2018,04,25,06,16,3.60
2018,04,25,06,17,3.60
2018,04,25,06,18,3.60
2018,04,25,06,19,3.70
2018,04,25,06,20,3.70
2018,04,25,06,21,3.70
2018,04,25,06,22,3.70
2018,04,25,06,23,3.70
2018,04,25,06,24,3.80
2018,04,25,06,25,3.80
2018,04,25,06,26,3.80
2018,04,25,06,27,3.80
2018,04,25,06,28,3.80
2018,04,25,06,29,3.80
2018,04,25,06,30,3.80
2018,04,25,06,31,3.80
2018,04,25,06,32,3.90
2018,04,25,06,33,3.90
2018,04,25,06,34,3.90
2018,04,25,06,35,4.00
2018,04,25,06,36,4.00
2018,04,25,06,37,4.10
2018,04,25,06,38,4.20
2018,04,25,06,39,4.40
2018,04,25,06,40,4.50
2018,04,25,06,41,4.70
2018,04,25,06,42,4.80
2018,04,25,06,43,4.90
2018,04,25,06,44,5.00
2018,04,25,06,45,5.10
2018,04,25,06,46,5.20
2018,04,25,06,47,5.40
2018,04,25,06,48,5.60
2018,04,25,06,49,5.70
2018,04,25,06,50,5.90
2018,04,25,06,51,6.00
2018,04,25,06,52,6.20
2018,04,25,06,53,6.30
2018,04,25,06,54,6.50
2018,04,25,06,55,6.60
2018,04,25,06,56,6.70
2018,04,25,06,57,6.90
2018,04,25,06,58,7.00
2018,04,25,06,59,7.10
2018,04,25,07,00,7.20
2018,04,25,07,01,7.30
2018,04,25,07,02,7.40
2018,04,25,07,03,7.50
2018,04,25,07,04,7.60
2018,04,25,07,05,7.70
2018,04,25,07,06,7.70
2018,04,25,07,07,7.80
2018,04,25,07,08,7.90
2018,04,25,07,09,7.90
2018,04,25,07,10,7.90
2018,04,25,07,11,8.00
2018,04,25,07,12,8.00
2018,04,25,07,13,8.10
2018,04,25,07,14,8.20
2018,04,25,07,15,8.20
2018,04,25,07,16,8.30
2018,04,25,07,17,8.40
2018,04,25,07,18,8.50
2018,04,25,07,19,8.70
2018,04,25,07,20,8.70
2018,04,25,07,21,8.80
2018,04,25,07,22,8.90
2018,04,25,07,23,9.00
2018,04,25,07,24,9.10
2018,04,25,07,25,9.10
2018,04,25,07,26,9.20
2018,04,25,07,27,9.20
2018,04,25,07,28,9.30
2018,04,25,07,29,9.40
2018,04,25,07,30,9.50
2018,04,25,07,31,9.50
2018,04,25,07,32,9.70
2018,04,25,07,33,9.80
2018,04,25,07,34,9.90
2018,04,25,07,35,9.90
2018,04,25,07,36,10.10
2018,04,25,07,37,10.20
2018,04,25,07,38,10.20
2018,04,25,07,39,10.20
2018,04,25,07,40,10.20
2018,04,25,07,41,10.20
2018,04,25,07,42,10.20
2018,04,25,07,43,10.20
2018,04,25,07,44,10.30
2018,04,25,07,45,10.30
2018,04,25,07,46,10.40
2018,04,25,07,47,10.50
2018,04,25,07,48,10.60
2018,04,25,07,49,10.70
2018,04,25,07,50,10.80
2018,04,25,07,51,10.90
2018,04,25,07,52,10.90
2018,04,25,07,53,11.00
2018,04,25,07,54,11.20
2018,04,25,07,55,11.30
2018,04,25,07,56,11.40
2018,04,25,07,57,11.50
2018,04,25,07,58,11.50
2018,04,25,07,59,11.60
2018,04,25,08,00,11.70
2018,04,25,08,01,11.80
2018,04,25,08,02,11.80
2018,04,25,08,03,11.90
2018,04,25,08,04,11.90
2018,04,25,08,05,12.00
2018,04,25,08,06,12.10
2018,04,25,08,07,12.20
2018,04,25,08,08,12.30
2018,04,25,08,09,12.30
2018,04,25,08,10,12.40
2018,04,25,08,11,12.40
2018,04,25,08,12,12.50
2018,04,25,08,13,12.60
2018,04,25,08,14,12.60
2018,04,25,08,15,12.70
2018,04,25,08,16,12.80
2018,04,25,08,17,12.90
2018,04,25,08,18,12.90
2018,04,25,08,19,12.90
2018,04,25,08,20,12.90
2018,04,25,08,21,12.90
2018,04,25,08,22,12.90
2018,04,25,08,23,12.90
2018,04,25,08,24,12.90
2018,04,25,08,25,13.00
2018,04,25,08,26,13.10
2018,04,25,08,27,13.20
2018,04,25,08,28,13.30
2018,04,25,08,29,13.40
2018,04,25,08,30,13.50
2018,04,25,08,31,13.50
2018,04,25,08,32,13.60
2018,04,25,08,33,13.70
2018,04,25,08,34,13.70
2018,04,25,08,35,13.80
2018,04,25,08,36,13.80
2018,04,25,08,37,13.80
2018,04,25,08,38,13.90
2018,04,25,08,39,14.00
2018,04,25,08,40,14.00
2018,04,25,08,41,14.10
2018,04,25,08,42,14.20
2018,04,25,08,43,14.30
2018,04,25,08,44,14.40
2018,04,25,08,45,14.40
2018,04,25,08,46,14.50
2018,04,25,08,47,14.50
2018,04,25,08,48,14.60
2018,04,25,08,49,14.60
2018,04,25,08,50,14.70
2018,04,25,08,51,14.70
2018,04,25,08,52,14.80
2018,04,25,08,53,14.90
2018,04,25,08,54,15.00
2018,04,25,08,55,15.00
2018,04,25,08,56,15.00
2018,04,25,08,57,15.00
2018,04,25,08,58,15.00
2018,04,25,08,59,15.10
2018,04,25,09,00,15.20
2018,04,25,09,01,15.20
2018,04,25,09,02,15.30
2018,04,25,09,03,15.40
2018,04,25,09,04,15.40
2018,04,25,09,05,15.30
2018,04,25,09,06,15.20
2018,04,25,09,07,15.10
2018,04,25,09,08,15.00
2018,04,25,09,09,15.00
2018,04,25,09,10,15.00
2018,04,25,09,11,15.00
2018,04,25,09,12,15.00
2018,04,25,09,13,14.90
2018,04,25,09,14,14.80
2018,04,25,09,15,14.80
2018,04,25,09,16,14.80
2018,04,25,09,17,14.90
2018,04,25,09,18,14.90
2018,04,25,09,19,15.00
2018,04,25,09,20,15.00
2018,04,25,09,21,15.00
2018,04,25,09,22,15.00
2018,04,25,09,23,15.00
2018,04,25,09,24,15.00
2018,04,25,09,25,15.10
2018,04,25,09,26,15.20
2018,04,25,09,27,15.30
2018,04,25,09,28,15.40
2018,04,25,09,29,15.50
2018,04,25,09,30,15.60
2018,04,25,09,31,15.70
2018,04,25,09,32,15.80
2018,04,25,09,33,15.90
2018,04,25,09,34,16.00
2018,04,25,09,35,16.10
2018,04,25,09,36,16.10
2018,04,25,09,37,16.20
2018,04,25,09,38,16.30
2018,04,25,09,39,16.30
2018,04,25,09,40,16.40
2018,04,25,09,41,16.40
2018,04,25,09,42,16.40
2018,04,25,09,43,16.40
2018,04,25,09,44,16.40
2018,04,25,09,45,16.30
2018,04,25,09,46,16.30
2018,04,25,09,47,16.30
2018,04,25,09,48,16.30
2018,04,25,09,49,16.30
2018,04,25,09,50,16.30
2018,04,25,09,51,16.40
2018,04,25,09,52,16.40
2018,04,25,09,53,16.40
2018,04,25,09,54,16.40
2018,04,25,09,55,16.40
2018,04,25,09,56,16.40
2018,04,25,09,57,16.50
2018,04,25,09,58,16.50
2018,04,25,09,59,16.60
2018,04,25,10,00,16.70
2018,04,25,10,01,16.70
2018,04,25,10,02,16.80
2018,04,25,10,03,16.80
2018,04,25,10,04,16.80
2018,04,25,10,05,16.80
2018,04,25,10,06,16.90
2018,04,25,10,07,16.90
2018,04,25,10,08,16.90
2018,04,25,10,09,16.90
2018,04,25,10,10,16.90
2018,04,25,10,11,16.90
2018,04,25,10,12,16.90
2018,04,25,10,13,16.90
2018,04,25,10,14,17.00
2018,04,25,10,15,17.10
2018,04,25,10,16,17.10
2018,04,25,10,17,17.20
2018,04,25,10,18,17.20
2018,04,25,10,19,17.20
2018,04,25,10,20,17.20
2018,04,25,10,21,17.30
2018,04,25,10,22,17.30
2018,04,25,10,23,17.30
2018,04,25,10,24,17.30
2018,04,25,10,25,17.40
2018,04,25,10,26,17.40
2018,04,25,10,27,17.40
2018,04,25,10,28,17.50
2018,04,25,10,29,17.50
2018,04,25,10,30,17.60
2018,04,25,10,31,17.70
2018,04,25,10,32,17.70
2018,04,25,10,33,17.80
2018,04,25,10,34,17.80
2018,04,25,10,35,17.80
2018,04,25,10,36,17.80
2018,04,25,10,37,17.80
2018,04,25,10,38,17.80
2018,04,25,10,39,17.80
2018,04,25,10,40,17.80
2018,04,25,10,41,17.80
2018,04,25,10,42,17.80
2018,04,25,10,43,17.80
2018,04,25,10,44,17.80
2018,04,25,10,45,17.90
2018,04,25,10,46,17.90
2018,04,25,10,47,17.90
2018,04,25,10,48,17.90
2018,04,25,10,49,17.90
2018,04,25,10,50,17.90
2018,04,25,10,51,18.00
2018,04,25,10,52,18.00
2018,04,25,10,53,18.00
2018,04,25,10,54,17.90
2018,04,25,10,55,17.90
2018,04,25,10,56,18.00
2018,04,25,10,57,18.00
2018,04,25,10,58,18.10
2018,04,25,10,59,18.10
2018,04,25,11,00,18.10
2018,04,25,11,01,18.00
2018,04,25,11,02,17.90
2018,04,25,11,03,17.90
2018,04,25,11,04,17.90
2018,04,25,11,05,17.90
2018,04,25,11,06,17.90
2018,04,25,11,07,17.80
2018,04,25,11,08,17.80
2018,04,25,11,09,17.80
2018,04,25,11,10,17.80
2018,04,25,11,11,17.80
2018,04,25,11,12,17.90
2018,04,25,11,13,17.90
2018,04,25,11,14,17.90
2018,04,25,11,15,17.90
2018,04,25,11,16,18.00
2018,04,25,11,17,18.00
2018,04,25,11,18,18.10
2018,04,25,11,19,18.10
2018,04,25,11,20,18.10
2018,04,25,11,21,18.10
2018,04,25,11,22,18.10
2018,04,25,11,23,18.20
2018,04,25,11,24,18.20
2018,04,25,11,25,18.20
2018,04,25,11,26,18.20
2018,04,25,11,27,18.20
2018,04,25,11,28,18.20
2018,04,25,11,29,18.20
2018,04,25,11,30,18.20
2018,04,25,11,31,18.30
2018,04,25,11,32,18.20
2018,04,25,11,33,18.20
2018,04,25,11,34,18.20
2018,04,25,11,35,18.30
2018,04,25,11,36,18.30
2018,04,25,11,37,18.20
2018,04,25,11,38,18.20
2018,04,25,11,39,18.20
2018,04,25,11,40,18.20
2018,04,25,11,41,18.30
2018,04,25,11,42,18.40
2018,04,25,11,43,18.40
2018,04,25,11,44,18.50
2018,04,25,11,45,18.50
2018,04,25,11,46,18.60
2018,04,25,11,47,18.70
2018,04,25,11,48,18.70
2018,04,25,11,49,18.80
2018,04,25,11,50,18.80
2018,04,25,11,51,18.80
2018,04,25,11,52,18.70
2018,04,25,11,53,18.60
2018,04,25,11,54,18.60
2018,04,25,11,55,18.60
2018,04,25,11,56,18.60
2018,04,25,11,57,18.60
2018,04,25,11,58,18.70
2018,04,25,11,59,18.70
2018,04,25,12,00,18.70
2018,04,25,12,01,18.70
2018,04,25,12,02,18.70
2018,04,25,12,03,18.70
2018,04,25,12,04,18.70
2018,04,25,12,05,18.70
2018,04,25,12,06,18.70
2018,04,25,12,07,18.70
2018,04,25,12,08,18.70
2018,04,25,12,09,18.80
2018,04,25,12,10,18.80
2018,04,25,12,11,18.80
2018,04,25,12,12,18.80
2018,04,25,12,13,18.80
2018,04,25,12,14,18.80
2018,04,25,12,15,18.80
2018,04,25,12,16,18.80
2018,04,25,12,17,18.80
2018,04,25,12,18,18.80
2018,04,25,12,19,18.90
2018,04,25,12,20,19.00
2018,04,25,12,21,19.00
2018,04,25,12,22,19.10
2018,04,25,12,23,19.10
2018,04,25,12,24,19.10
2018,04,25,12,25,19.10
2018,04,25,12,26,19.20
2018,04,25,12,27,19.30
2018,04,25,12,28,19.30
2018,04,25,12,29,19.30
2018,04,25,12,30,19.30
2018,04,25,12,31,19.30
2018,04,25,12,32,19.30
2018,04,25,12,33,19.20
2018,04,25,12,34,19.10
2018,04,25,12,35,19.10
2018,04,25,12,36,19.10
2018,04,25,12,37,19.10
2018,04,25,12,38,19.10
2018,04,25,12,39,19.10
2018,04,25,12,40,19.20
2018,04,25,12,41,19.20
2018,04,25,12,42,19.20
2018,04,25,12,43,19.30
2018,04,25,12,44,19.40
2018,04,25,12,45,19.40
2018,04,25,12,46,19.40
2018,04,25,12,47,19.40
2018,04,25,12,48,19.40
2018,04,25,12,49,19.40
2018,04,25,12,50,19.50
2018,04,25,12,51,19.50
2018,04,25,12,52,19.50
2018,04,25,12,53,19.60
2018,04,25,12,54,19.60
2018,04,25,12,55,19.60
2018,04,25,12,56,19.60
2018,04,25,12,57,19.60
2018,04,25,12,58,19.70
2018,04,25,12,59,19.70
2018,04,25,13,00,19.70
2018,04,25,13,01,19.70
2018,04,25,13,02,19.80
2018,04,25,13,03,19.80
2018,04,25,13,04,19.80
2018,04,25,13,05,19.80
2018,04,25,13,06,19.80
2018,04,25,13,07,19.80
2018,04,25,13,08,19.90
2018,04,25,13,09,19.80
2018,04,25,13,10,19.80
2018,04,25,13,11,19.70
2018,04,25,13,12,19.60
2018,04,25,13,13,19.60
2018,04,25,13,14,19.60
2018,04,25,13,15,19.60
2018,04,25,13,16,19.60
2018,04,25,13,17,19.50
2018,04,25,13,18,19.50
2018,04,25,13,19,19.50
2018,04,25,13,20,19.50
2018,04,25,13,21,19.40
2018,04,25,13,22,19.40
2018,04,25,13,23,19.50
2018,04,25,13,24,19.60
2018,04,25,13,25,19.70
2018,04,25,13,26,19.70
2018,04,25,13,27,19.70
2018,04,25,13,28,19.70
2018,04,25,13,29,19.70
2018,04,25,13,30,19.80
2018,04,25,13,31,19.80
2018,04,25,13,32,19.80
2018,04,25,13,33,19.80
2018,04,25,13,34,19.90
2018,04,25,13,35,19.90
2018,04,25,13,36,19.90
2018,04,25,13,37,19.80
2018,04,25,13,38,19.80
2018,04,25,13,39,19.80
2018,04,25,13,40,19.80
2018,04,25,13,41,19.80
2018,04,25,13,42,19.80
2018,04,25,13,43,19.80
2018,04,25,13,44,19.80
2018,04,25,13,45,19.90
2018,04,25,13,46,19.90
2018,04,25,13,47,19.90
2018,04,25,13,48,19.90
2018,04,25,13,49,19.90
2018,04,25,13,50,19.90
2018,04,25,13,51,19.80
2018,04,25,13,52,19.90
2018,04,25,13,53,19.90
2018,04,25,13,54,19.90
2018,04,25,13,55,19.90
2018,04,25,13,56,19.90
2018,04,25,13,57,19.90
2018,04,25,13,58,19.90
2018,04,25,13,59,19.90
2018,04,25,14,00,20.00
2018,04,25,14,01,20.10
2018,04,25,14,02,20.20
2018,04,25,14,03,20.30
2018,04,25,14,04,20.30
2018,04,25,14,05,20.30
2018,04,25,14,06,20.30
2018,04,25,14,07,20.30
2018,04,25,14,08,20.30
2018,04,25,14,09,20.30
2018,04,25,14,10,20.30
2018,04,25,14,11,20.30
2018,04,25,14,12,20.20
2018,04,25,14,13,20.20
2018,04,25,14,14,20.20
2018,04,25,14,15,20.20
2018,04,25,14,16,20.20
2018,04,25,14,17,20.20
2018,04,25,14,18,20.20
2018,04,25,14,19,20.20
2018,04,25,14,20,20.30
2018,04,25,14,21,20.30
2018,04,25,14,22,20.20
2018,04,25,14,23,20.20
2018,04,25,14,24,20.20
2018,04,25,14,25,20.10
2018,04,25,14,26,20.20
2018,04,25,14,27,20.20
2018,04,25,14,28,20.30
2018,04,25,14,29,20.40
2018,04,25,14,30,20.50
2018,04,25,14,31,20.60
2018,04,25,14,32,20.60
2018,04,25,14,33,20.70
2018,04,25,14,34,20.70
2018,04,25,14,35,20.70
2018,04,25,14,36,20.60
2018,04,25,14,37,20.60
2018,04,25,14,38,20.60
2018,04,25,14,39,20.50
2018,04,25,14,40,20.60
2018,04,25,14,41,20.60
2018,04,25,14,42,20.50
2018,04,25,14,43,20.50
2018,04,25,14,44,20.50
2018,04,25,14,45,20.40
2018,04,25,14,46,20.40
2018,04,25,14,47,20.30
2018,04,25,14,48,20.30
2018,04,25,14,49,20.30
2018,04,25,14,50,20.30
2018,04,25,14,51,20.30
2018,04,25,14,52,20.30
2018,04,25,14,53,20.20
2018,04,25,14,54,20.20
2018,04,25,14,55,20.20
2018,04,25,14,56,20.10
2018,04,25,14,57,20.10
2018,04,25,14,58,20.20
2018,04,25,14,59,20.20
2018,04,25,15,00,20.20
2018,04,25,15,01,20.30
2018,04,25,15,02,20.30
2018,04,25,15,03,20.40
2018,04,25,15,04,20.40
2018,04,25,15,05,20.50
2018,04,25,15,06,20.70
2018,04,25,15,07,20.70
2018,04,25,15,08,20.70
2018,04,25,15,09,20.80
2018,04,25,15,10,20.80
2018,04,25,15,11,20.80
2018,04,25,15,12,20.80
2018,04,25,15,13,20.80
2018,04,25,15,14,20.80
2018,04,25,15,15,20.80
2018,04,25,15,16,20.90
2018,04,25,15,17,20.90
2018,04,25,15,18,20.90
2018,04,25,15,19,20.90
2018,04,25,15,20,20.90
2018,04,25,15,21,20.90
2018,04,25,15,22,20.90
2018,04,25,15,23,20.90
2018,04,25,15,24,20.90
2018,04,25,15,25,21.00
2018,04,25,15,26,21.00
2018,04,25,15,27,21.00
2018,04,25,15,28,21.00
2018,04,25,15,29,21.00
2018,04,25,15,30,21.00
2018,04,25,15,31,20.90
2018,04,25,15,32,20.90
2018,04,25,15,33,20.90
2018,04,25,15,34,20.80
2018,04,25,15,35,20.80
2018,04,25,15,36,20.80
2018,04,25,15,37,20.80
2018,04,25,15,38,20.80
2018,04,25,15,39,20.80
2018,04,25,15,40,20.80
2018,04,25,15,41,20.80
2018,04,25,15,42,20.80
2018,04,25,15,43,20.80
2018,04,25,15,44,20.80
2018,04,25,15,45,20.90
2018,04,25,15,46,20.90
2018,04,25,15,47,21.00
2018,04,25,15,48,21.00
2018,04,25,15,49,21.10
2018,04,25,15,50,21.10
2018,04,25,15,51,21.10
2018,04,25,15,52,21.10
2018,04,25,15,53,21.10
2018,04,25,15,54,21.10
2018,04,25,15,55,21.20
2018,04,25,15,56,21.20
2018,04,25,15,57,21.20
2018,04,25,15,58,21.20
2018,04,25,15,59,21.20
2018,04,25,16,00,21.30
2018,04,25,16,01,21.30
2018,04,25,16,02,21.30
2018,04,25,16,03,21.40
2018,04,25,16,04,21.40
2018,04,25,16,05,21.40
2018,04,25,16,06,21.40
2018,04,25,16,07,21.40
2018,04,25,16,08,21.40
2018,04,25,16,09,21.40
2018,04,25,16,10,21.40
2018,04,25,16,11,21.40
2018,04,25,16,12,21.40
2018,04,25,16,13,21.40
2018,04,25,16,14,21.40
2018,04,25,16,15,21.40
2018,04,25,16,16,21.40
2018,04,25,16,17,21.40
2018,04,25,16,18,21.40
2018,04,25,16,19,21.40
2018,04,25,16,20,21.50
2018,04,25,16,21,21.50
2018,04,25,16,22,21.50
2018,04,25,16,23,21.50
2018,04,25,16,24,21.40
2018,04,25,16,25,21.40
2018,04,25,16,26,21.40
2018,04,25,16,27,21.40
2018,04,25,16,28,21.40
2018,04,25,16,29,21.40
2018,04,25,16,30,21.40
2018,04,25,16,31,21.40
2018,04,25,16,32,21.40
2018,04,25,16,33,21.40
2018,04,25,16,34,21.50
2018,04,25,16,35,21.50
2018,04,25,16,36,21.50
2018,04,25,16,37,21.50
2018,04,25,16,38,21.50
2018,04,25,16,39,21.50
2018,04,25,16,40,21.50
2018,04,25,16,41,21.50
2018,04,25,16,42,21.50
2018,04,25,16,43,21.60
2018,04,25,16,44,21.60
2018,04,25,16,45,21.60
2018,04,25,16,46,21.60
2018,04,25,16,47,21.60
2018,04,25,16,48,21.60
2018,04,25,16,49,21.60
2018,04,25,16,50,21.70
2018,04,25,16,51,21.70
2018,04,25,16,52,21.70
2018,04,25,16,53,21.70
2018,04,25,16,54,21.60
2018,04,25,16,55,21.60
2018,04,25,16,56,21.60
2018,04,25,16,57,21.60
2018,04,25,16,58,21.60
2018,04,25,16,59,21.60
2018,04,25,17,00,21.60
2018,04,25,17,01,21.60
2018,04,25,17,02,21.60
2018,04,25,17,03,21.60
2018,04,25,17,04,21.60
2018,04,25,17,05,21.60
2018,04,25,17,06,21.60
2018,04,25,17,07,21.60
2018,04,25,17,08,21.60
2018,04,25,17,09,21.60
2018,04,25,17,10,21.60
2018,04,25,17,11,21.60
2018,04,25,17,12,21.60
2018,04,25,17,13,21.60
2018,04,25,17,14,21.60
2018,04,25,17,15,21.60
2018,04,25,17,16,21.60
2018,04,25,17,17,21.60
2018,04,25,17,18,21.60
2018,04,25,17,19,21.60
2018,04,25,17,20,21.60
2018,04,25,17,21,21.60
2018,04,25,17,22,21.60
2018,04,25,17,23,21.60
2018,04,25,17,24,21.60
2018,04,25,17,25,21.60
2018,04,25,17,26,21.60
2018,04,25,17,27,21.60
2018,04,25,17,28,21.60
2018,04,25,17,29,21.70
2018,04,25,17,30,21.70
2018,04,25,17,31,21.70
2018,04,25,17,32,21.70
2018,04,25,17,33,21.70
2018,04,25,17,34,21.70
2018,04,25,17,35,21.70
2018,04,25,17,36,21.70
2018,04,25,17,37,21.70
2018,04,25,17,38,21.70
2018,04,25,17,39,21.60